Location: Strawberry
(45.6646°N, 111.9596°W)
Time: 21:50:46
(UTC+00:00)

Courier 1B - Pass Details

Date: 04 October 2022
Orbit: 962 x 1209 km, 28.3° (Epoch: 03 December)

Event Time Altitude Azimuth Distance (km) Brightness Sun altitude
Rises 21:06:56 0° 223° (SW) 4,034 11.8 34.0°
Reaches altitude 10° 21:11:04 10° 203° (SSW) 3,031 11.5 33.6°
Maximum altitude 21:15:16 16° 168° (SSE) 2,555 10.5 33.2°
Drops below altitude 10° 21:19:22 10° 133° (SE) 2,930 10.2 32.8°
Sets 21:23:15 0° 113° (ESE) 3,834 10.5 32.4°
